User: anonymous   Login
Location: Unspecified
(0.0000°N, 0.0000°E)
Time: 09:36:29
(UTC+00:00)
Language:

ESSA 8 - Orbit

View from above orbital plane
View from above orbital plane
View from above satellite
View from above satellite

Ground track
Ground track

The orbit data is extracted from the following two-line orbital elements,

1  3615U 68114A   17295.97054816 -.00000041 +00000-0 +58538-5 0  9999
2  3615 101.2558 287.7470 0032045 039.8788 014.5262 12.56197848239860
Epoch (UTC): 22 October 2017 23:17:35
Eccentricity: 0.0032045
inclination: 101.2558°
perigee height: 1413 km
apogee height: 1464 km
right ascension of ascending node: 287.7470°
argument of perigee: 39.8788°
revolutions per day: 12.56197848
mean anomaly at epoch: 14.5262°
orbit number at epoch: 23986

The dashed part of the orbit path shows where the satellite is in the earth's shadow,  

DLR